Location: Montreal
(45.5000°N, 73.5830°W)
Time: 12:06:31
(UTC-04:00)

Amateur Radio Satellites - All Passes

Search period start: 19 October 2017 11:36
Search period end: 20 October 2017 11:36
Location: Montreal, 45.5000°N, 73.5830°W

Satellite Date Start Highest point End Downlink Frequencies (MHz)
Time Altitude Azimuth
EO-79 19 Oct 11:38:03 11:42:13 55° 72° (ENE) 11:46:25 145.935-145.965
LO-87 19 Oct 11:40:51 11:44:08 31° 97° (E) 11:47:24 145.935 - 145.965
POLYITAN 1 19 Oct 11:42:21 11:46:35 61° 72° (ENE) 11:50:50 437.675
Oscar 19 19 Oct 11:50:31 11:52:42 13° 55° (NE) 11:54:55 437.125/150
ISS 19 Oct 11:52:18 11:55:33 76° 333° (NNW) 11:58:50 437.550
AIST 2D 19 Oct 12:02:03 12:05:02 26° 265° (W) 12:08:01 435.315
QB50P2 19 Oct 12:02:30 12:06:47 75° 259° (WSW) 12:11:05 145.880/145.840
M-CUBED/EXP-1 PRIME 19 Oct 12:03:44 12:04:49 11° 57° (ENE) 12:05:53 437.505
BEESAT 3 19 Oct 12:06:49 12:09:55 22° 114° (ESE) 12:13:03 437.485
NANOSAT C BR1 19 Oct 12:07:03 12:11:18 82° 257° (WSW) 12:15:36 145.865
Gurwin Techsat 1B 19 Oct 12:11:19 12:14:04 14° 56° (NE) 12:16:50 435.225
DUCHIFAT 1 19 Oct 12:18:33 12:22:47 71° 258° (WSW) 12:27:03 145.980
EO-88 19 Oct 12:22:14 12:23:41 12° 298° (WNW) 12:25:09 145.990 - 145.960
VELOX 1 19 Oct 12:31:18 12:33:46 15° 90° (E) 12:36:13 145.980
BUGSAT 1 19 Oct 12:31:25 12:35:22 43° 71° (ENE) 12:39:24 437.445
ESTCUBE 1 19 Oct 12:34:51 12:39:21 85° 101° (ESE) 12:43:50 437.505/2401.250
nSIGHT-1 19 Oct 12:59:33 13:02:28 31° 347° (NNW) 13:05:23 .
LO-87 19 Oct 13:14:42 13:17:20 19° 294° (WNW) 13:19:58 145.935 - 145.965
EO-79 19 Oct 13:15:49 13:18:18 15° 269° (W) 13:20:49 145.935-145.965
POLYITAN 1 19 Oct 13:20:32 13:22:45 14° 270° (W) 13:24:58 437.675
AO-7 19 Oct 13:23:00 13:29:00 23° 48° (NE) 13:34:59 .
BEESAT 2 19 Oct 13:23:44 13:27:30 41° 118° (ESE) 13:31:21 435.950
Oscar 19 19 Oct 13:26:02 13:31:12 80° 73° (ENE) 13:36:23 437.125/150
ISS 19 Oct 13:29:28 13:32:23 28° 352° (N) 13:35:17 437.550
RS-15 19 Oct 13:29:38 13:31:06 10° 270° (W) 13:32:33 29.354- 29.394
SPROUT 19 Oct 13:30:27 13:34:47 86° 104° (ESE) 13:39:04 437.525
M-CUBED/EXP-1 PRIME 19 Oct 13:35:34 13:38:53 52° 253° (WSW) 13:42:08 437.505
DX 1 19 Oct 13:40:51 13:44:02 19° 93° (E) 13:47:11 434.975-435.025
BEESAT 3 19 Oct 13:43:24 13:47:13 42° 312° (NW) 13:51:05 437.485
Gurwin Techsat 1B 19 Oct 13:47:55 13:53:14 87° 74° (ENE) 13:58:35 435.225
SO-50 19 Oct 13:52:37 13:54:53 13° 28° (NNE) 13:57:10 436.795
ITAMSAT 1 19 Oct 13:59:23 14:01:52 14° 55° (NE) 14:04:22 435.822/435.867
AO-85 19 Oct 14:05:30 14:09:21 73° 123° (ESE) 14:13:21 145.980
VELOX 1 19 Oct 14:06:13 14:10:36 61° 287° (WNW) 14:14:58 145.980
UKube-1 19 Oct 14:07:09 14:10:37 23° 94° (E) 14:14:04 .
BUGSAT 1 19 Oct 14:07:58 14:10:56 19° 268° (W) 14:13:55 437.445
50 SAT 19 Oct 14:13:30 14:16:45 51° 100° (E) 14:19:58 437.505
ESTCUBE 1 19 Oct 14:13:42 14:15:29 12° 302° (WNW) 14:17:17 437.505/2401.250
nSIGHT-1 19 Oct 14:36:30 14:39:19 28° 7° (N) 14:42:09 .
BEESAT 2 19 Oct 15:01:59 15:05:22 25° 318° (NW) 15:08:49 435.950
BEESAT 19 Oct 15:03:46 15:06:03 13° 89° (E) 15:08:19 436.000
ISS 19 Oct 15:06:27 15:09:26 32° 12° (NNE) 15:12:26 437.550
Oscar 19 19 Oct 15:08:29 15:11:08 14° 271° (W) 15:13:47 437.125/150
SPROUT 19 Oct 15:08:38 15:10:00 11° 301° (WNW) 15:11:21 437.525
AO-7 19 Oct 15:12:20 15:20:38 83° 68° (ENE) 15:28:58 .
DX 1 19 Oct 15:16:15 15:20:24 44° 290° (WNW) 15:24:33 434.975-435.025
Gurwin Techsat 1B 19 Oct 15:31:25 15:33:52 13° 272° (W) 15:36:21 435.225
SO-50 19 Oct 15:31:49 15:36:21 54° 49° (NE) 15:40:55 436.795
ITAMSAT 1 19 Oct 15:35:20 15:40:31 84° 74° (ENE) 15:45:46 435.822/435.867
UKube-1 19 Oct 15:42:45 15:46:44 36° 291° (WNW) 15:50:41 .
AO-85 19 Oct 15:47:38 15:50:15 17° 325° (NW) 15:52:57 145.980
50 SAT 19 Oct 15:47:46 15:48:38 11° 297° (WNW) 15:49:29 437.505
MOZHAYETS 4 19 Oct 16:04:15 16:08:48 59° 100° (E) 16:13:18
nSIGHT-1 19 Oct 16:12:45 16:15:58 74° 28° (NNE) 16:19:10 .
CUBESAT XI-V 19 Oct 16:13:31 16:16:35 18° 91° (E) 16:19:40 437.345
ITUPSAT 1 19 Oct 16:23:17 16:28:07 76° 104° (ESE) 16:32:54 437.325
BEESAT 19 Oct 16:39:34 16:44:22 75° 286° (WNW) 16:49:07 436.000
PCSat 19 Oct 16:40:36 16:45:25 31° 45° (NE) 16:50:10 145.827
ISS 19 Oct 16:42:52 16:46:09 74° 211° (SSW) 16:49:24 437.550
DOVE 4 19 Oct 16:48:50 16:52:51 48° 71° (ENE) 16:57:04 437.250
XW-2F 19 Oct 17:04:00 17:06:15 15° 64° (ENE) 17:08:29 145.980 - 146.000
KAITUO 1B 19 Oct 17:04:47 17:06:19 12° 62° (ENE) 17:07:52 145.475/437.950
LilacSat-2 19 Oct 17:06:27 17:09:09 19° 66° (ENE) 17:11:52 437.200
AO-7 19 Oct 17:08:03 17:14:18 23° 269° (W) 17:20:35 .
SO-50 19 Oct 17:12:59 17:16:28 21° 247° (WSW) 17:19:58 436.795
XW-2D 19 Oct 17:14:45 17:17:41 22° 67° (ENE) 17:20:37 145.860 - 145.880
ITAMSAT 1 19 Oct 17:18:10 17:20:38 13° 272° (W) 17:23:09 435.822/435.867
NUDT-PHONESAT 19 Oct 17:19:40 17:22:07 17° 65° (ENE) 17:24:34 437.300
XW-2B 19 Oct 17:27:45 17:31:02 28° 69° (ENE) 17:34:19 145.730 - 145.750
CUTE-I 19 Oct 17:37:16 17:42:12 40° 67° (ENE) 17:47:10 437.470
KKS-1 19 Oct 17:38:56 17:43:06 36° 98° (E) 17:47:13 437.445
MOZHAYETS 4 19 Oct 17:42:30 17:45:29 17° 299° (WNW) 17:48:29
nSIGHT-1 19 Oct 17:49:42 17:51:55 17° 224° (SW) 17:54:08 .
CUBESAT XI-V 19 Oct 17:49:48 17:54:17 53° 288° (WNW) 17:58:45 437.345
XW-2C 19 Oct 17:50:26 17:54:08 52° 73° (ENE) 17:57:51 145.795 - 145.815
ITUPSAT 1 19 Oct 18:02:34 18:05:20 15° 302° (WNW) 18:08:05 437.325
HO-68 19 Oct 18:02:59 18:09:27 38° 61° (ENE) 18:15:56 435.675
STARS 19 Oct 18:14:33 18:18:38 35° 97° (E) 18:22:42 437.465
UWE-3 19 Oct 18:15:27 18:16:21 10° 57° (ENE) 18:17:15 435.000/436.395/437.385
CUTE 1.7 + AOD 2 19 Oct 18:18:06 18:21:34 25° 67° (ENE) 18:25:04 437.475
BEESAT 19 Oct 18:20:05 18:21:18 11° 305° (NW) 18:22:30 436.000
ISS 19 Oct 18:21:02 18:22:06 11° 228° (SW) 18:23:11 437.550
PCSat 19 Oct 18:23:48 18:29:03 51° 245° (WSW) 18:34:15 145.827
SEEDS 19 Oct 18:27:34 18:30:39 20° 65° (ENE) 18:33:44 437.485
DOVE 4 19 Oct 18:28:15 18:30:55 16° 270° (W) 18:33:39 437.250
KAITUO 1B 19 Oct 18:36:09 18:39:51 58° 260° (W) 18:43:32 145.475/437.950
XW-2F 19 Oct 18:36:21 18:40:00 45° 261° (W) 18:43:38 145.980 - 146.000
LilacSat-2 19 Oct 18:39:37 18:43:11 36° 262° (W) 18:46:45 437.200
XW-2D 19 Oct 18:48:18 18:51:42 30° 264° (W) 18:55:06 145.860 - 145.880
NUDT-PHONESAT 19 Oct 18:52:12 18:55:41 38° 262° (W) 18:59:11 437.300
AAUSAT CUBESAT 2 19 Oct 18:54:42 18:57:28 18° 64° (ENE) 19:00:16 437.432
XW-2B 19 Oct 19:02:09 19:05:12 23° 266° (W) 19:08:15 145.730 - 145.750
XW-2A 19 Oct 19:07:16 19:10:12 27° 70° (ENE) 19:13:07 145.665 - 145.685
CUBEBUG 2 19 Oct 19:07:24 19:11:55 51° 72° (ENE) 19:16:32 437.445
AO-73 19 Oct 19:07:36 19:10:28 17° 62° (ENE) 19:13:21 145.935
KKS-1 19 Oct 19:15:47 19:19:29 26° 295° (WNW) 19:23:09 437.445
CUTE-I 19 Oct 19:17:44 19:22:20 30° 265° (W) 19:26:59 437.470
XW-2C 19 Oct 19:26:57 19:28:37 12° 270° (W) 19:30:18 145.795 - 145.815
ZACube-1 19 Oct 19:27:51 19:31:44 28° 67° (ENE) 19:35:38 437.345
YUBILEINY 19 Oct 19:28:00 19:35:13 27° 63° (ENE) 19:42:25 435.215
UWE-3 19 Oct 19:47:19 19:51:57 76° 75° (ENE) 19:56:39 435.000/436.395/437.385
HO-68 19 Oct 19:50:08 19:57:00 49° 260° (W) 20:03:57 435.675
STARS 19 Oct 19:51:09 19:54:49 26° 295° (WNW) 19:58:29 437.465
O/OREOS (USA 219) 19 Oct 19:51:25 19:52:09 10° 96° (E) 19:52:52 437.305
CUTE 1.7 + AOD 2 19 Oct 19:53:30 19:57:17 32° 264° (W) 20:01:05 437.475
STRAND 1 19 Oct 19:55:08 19:59:56 38° 97° (E) 20:04:43 437.568
SEEDS 19 Oct 20:02:09 20:06:05 40° 262° (W) 20:10:02 437.485
BEESAT 2 19 Oct 20:03:08 20:04:19 11° 29° (NNE) 20:05:30 435.950
Oscar 11 19 Oct 20:06:04 20:10:07 40° 70° (ENE) 20:14:10 .
FO-29 19 Oct 20:11:16 20:15:03 15° 87° (E) 20:18:59 435.910
BEESAT 3 19 Oct 20:20:35 20:24:07 29° 44° (NE) 20:27:34 437.485
AAUSAT CUBESAT 2 19 Oct 20:28:40 20:32:36 45° 261° (W) 20:36:34 437.432
DELFI C3 19 Oct 20:31:05 20:33:32 16° 64° (ENE) 20:36:00 145.870
XW-2A 19 Oct 20:40:24 20:42:55 19° 266° (W) 20:45:26 145.665 - 145.685
AO-73 19 Oct 20:41:41 20:46:13 62° 259° (W) 20:50:46 145.935
CUBEBUG 2 19 Oct 20:45:27 20:48:48 19° 269° (W) 20:52:14 437.445
AO-85 19 Oct 20:54:00 20:57:25 21° 39° (NE) 21:01:00 145.980
ZACube-1 19 Oct 21:03:43 21:07:53 34° 264° (W) 21:12:04 437.345
YUBILEINY 19 Oct 21:24:10 21:32:57 76° 266° (W) 21:41:44 435.215
O/OREOS (USA 219) 19 Oct 21:26:12 21:30:46 88° 296° (WNW) 21:35:24 437.305
EO-88 19 Oct 21:26:26 21:29:42 32° 70° (ENE) 21:33:00 145.990 - 145.960
UWE-3 19 Oct 21:26:50 21:28:56 13° 272° (W) 21:31:04 435.000/436.395/437.385
Max Valier Satellite 19 Oct 21:33:57 21:37:36 55° 74° (ENE) 21:41:17 145.860
STRAND 1 19 Oct 21:34:30 21:39:00 31° 295° (WNW) 21:43:29 437.568
BEESAT 2 19 Oct 21:39:00 21:42:59 51° 50° (NE) 21:46:54 435.950
Oscar 11 19 Oct 21:43:06 21:46:23 21° 267° (W) 21:49:42 .
FO-29 19 Oct 21:54:04 22:00:53 77° 103° (ESE) 22:08:28 435.910
BEESAT 3 19 Oct 21:58:06 22:01:40 33° 243° (WSW) 22:05:10 437.485
ESTCUBE 1 19 Oct 22:02:29 22:04:27 13° 59° (ENE) 22:06:24 437.505/2401.250
DELFI C3 19 Oct 22:04:11 22:07:56 45° 261° (W) 22:11:43 145.870
UNISAT 6 19 Oct 22:14:46 22:18:59 33° 96° (E) 22:23:05 437.425
LO-87 19 Oct 22:19:15 22:21:50 19° 66° (ENE) 22:24:27 145.935 - 145.965
TIGRISAT 19 Oct 22:29:39 22:34:06 43° 98° (E) 22:38:24 435.000
AO-85 19 Oct 22:33:42 22:38:13 71° 238° (WSW) 22:43:05 145.980
SPROUT 19 Oct 22:53:54 22:54:26 10° 58° (ENE) 22:54:58 437.525
EO-88 19 Oct 23:00:51 23:03:26 18° 267° (W) 23:06:02 145.990 - 145.960
O/OREOS (USA 219) 19 Oct 23:08:36 23:10:55 14° 314° (NW) 23:13:16 437.305
Max Valier Satellite 19 Oct 23:10:28 23:11:46 11° 271° (W) 23:13:04 145.860
BEESAT 2 19 Oct 23:17:38 23:20:20 18° 248° (WSW) 23:23:02 435.950
YUBILEINY 19 Oct 23:23:25 23:28:09 16° 287° (WNW) 23:32:55 435.215
AIST 2D 19 Oct 23:24:42 23:27:11 18° 93° (E) 23:29:39 435.315
RS-15 19 Oct 23:26:27 23:35:15 24° 99° (E) 23:44:00 29.354- 29.394
VELOX 1 19 Oct 23:30:32 23:33:29 18° 62° (ENE) 23:36:27 145.980
PRISM 19 Oct 23:33:35 23:37:43 85° 288° (WNW) 23:41:52 437.425
ESTCUBE 1 19 Oct 23:36:06 23:40:36 82° 256° (WSW) 23:45:07 437.505/2401.250
FO-29 19 Oct 23:40:11 23:45:24 25° 300° (WNW) 23:51:01 435.910
QB50P2 19 Oct 23:46:16 23:48:50 15° 91° (E) 23:51:22 145.880/145.840
NANOSAT C BR1 19 Oct 23:50:33 23:52:43 14° 90° (E) 23:54:53 145.865
UNISAT 6 19 Oct 23:51:36 23:55:34 28° 294° (WNW) 23:59:27 437.425
LO-87 19 Oct 23:51:48 23:55:02 31° 263° (W) 23:58:19 145.935 - 145.965
DUCHIFAT 1 20 Oct 00:01:21 00:03:56 16° 91° (E) 00:06:30 145.980
TIGRISAT 20 Oct 00:06:53 00:10:30 23° 296° (WNW) 00:14:02 435.000
SPROUT 20 Oct 00:25:18 00:29:35 85° 76° (ENE) 00:33:54 437.525
DX 1 20 Oct 00:38:23 00:41:47 23° 64° (ENE) 00:45:12 434.975-435.025
50 SAT 20 Oct 00:44:22 00:47:00 23° 68° (ENE) 00:49:41 437.505
EO-79 20 Oct 00:55:52 01:00:09 76° 103° (ESE) 01:04:23 145.935-145.965
AIST 2D 20 Oct 00:57:22 01:00:24 28° 290° (WNW) 01:03:25 435.315
POLYITAN 1 20 Oct 01:00:24 01:04:43 84° 103° (ESE) 01:08:58 437.675
UKube-1 20 Oct 01:03:32 01:07:07 26° 66° (ENE) 01:10:44 .
VELOX 1 20 Oct 01:05:16 01:09:32 52° 260° (W) 01:13:50 145.980
QB50P2 20 Oct 01:20:46 01:24:56 53° 288° (WNW) 01:29:04 145.880/145.840
NANOSAT C BR1 20 Oct 01:24:37 01:28:49 60° 287° (WNW) 01:32:59 145.865
RS-15 20 Oct 01:33:34 01:45:53 82° 121° (ESE) 01:58:11 29.354- 29.394
DUCHIFAT 1 20 Oct 01:35:46 01:39:54 52° 288° (WNW) 01:43:59 145.980
Oscar 19 20 Oct 01:35:58 01:40:01 23° 93° (E) 01:44:02 437.125/150
BUGSAT 1 20 Oct 01:45:49 01:49:59 54° 100° (E) 01:54:05 437.445
ITUPSAT 1 20 Oct 01:56:38 01:59:29 16° 59° (ENE) 02:02:20 437.325
Gurwin Techsat 1B 20 Oct 02:02:15 02:06:50 29° 95° (E) 02:11:24 435.225
BEESAT 20 Oct 02:11:39 02:15:14 21° 62° (ENE) 02:18:50 436.000
DX 1 20 Oct 02:13:43 02:17:45 38° 262° (W) 02:21:49 434.975-435.025
50 SAT 20 Oct 02:16:49 02:19:18 20° 265° (W) 02:21:47 437.505
EO-79 20 Oct 02:33:27 02:35:18 13° 300° (WNW) 02:37:09 145.935-145.965
POLYITAN 1 20 Oct 02:38:24 02:39:49 11° 301° (WNW) 02:41:14 437.675
UKube-1 20 Oct 02:39:11 02:43:01 32° 263° (W) 02:46:54 .
M-CUBED/EXP-1 PRIME 20 Oct 02:44:47 02:48:18 65° 108° (ESE) 02:52:02 437.505
MOZHAYETS 4 20 Oct 03:07:47 03:12:24 72° 75° (ENE) 03:17:02
AO-7 20 Oct 03:12:25 03:18:41 23° 91° (E) 03:24:54 .
Oscar 19 20 Oct 03:14:39 03:19:34 48° 291° (WNW) 03:24:29 437.125/150
CUBESAT XI-V 20 Oct 03:18:43 03:22:21 23° 64° (ENE) 03:25:58 437.345
BUGSAT 1 20 Oct 03:22:14 03:24:54 17° 298° (WNW) 03:27:34 437.445
ITUPSAT 1 20 Oct 03:31:55 03:36:43 74° 257° (WSW) 03:41:34 437.325
NO-84 20 Oct 03:37:23 03:41:28 43° 136° (SE) 03:45:30 435.350 FM
Gurwin Techsat 1B 20 Oct 03:41:55 03:46:54 42° 293° (WNW) 03:51:52 435.225
ITAMSAT 1 20 Oct 03:46:27 03:50:43 25° 94° (E) 03:54:57 435.822/435.867
BEESAT 20 Oct 03:48:01 03:52:40 50° 260° (W) 03:57:21 436.000
RS-15 20 Oct 03:48:11 03:59:45 43° 329° (NNW) 04:11:10 29.354- 29.394
M-CUBED/EXP-1 PRIME 20 Oct 04:21:10 04:22:21 11° 303° (WNW) 04:23:33 437.505
KKS-1 20 Oct 04:38:47 04:42:59 44° 70° (ENE) 04:47:13 437.445
DOVE 4 20 Oct 04:45:57 04:48:26 14° 88° (E) 04:50:57 437.250
MOZHAYETS 4 20 Oct 04:47:53 04:50:04 13° 271° (W) 04:52:17
CUBESAT XI-V 20 Oct 04:55:05 04:59:28 42° 262° (W) 05:03:52 437.345
AO-7 20 Oct 05:04:01 05:12:22 83° 290° (WNW) 05:20:41 .
STARS 20 Oct 05:12:55 05:17:01 41° 70° (ENE) 05:21:11 437.465
NO-84 20 Oct 05:14:51 05:18:57 42° 334° (NNW) 05:22:55 435.350 FM
ITAMSAT 1 20 Oct 05:25:22 05:30:24 47° 291° (WNW) 05:35:23 435.822/435.867
STRAND 1 20 Oct 05:38:43 05:39:51 11° 53° (NE) 05:40:58 437.568
CUTE-I 20 Oct 05:53:36 05:56:00 13° 87° (E) 05:58:24 437.470
O/OREOS (USA 219) 20 Oct 05:55:05 05:59:13 32° 56° (ENE) 06:03:20 437.305
RS-15 20 Oct 06:06:04 06:16:28 30° 2° (N) 06:26:34 29.354- 29.394
KAITUO 1B 20 Oct 06:06:53 06:08:00 11° 89° (E) 06:09:05 145.475/437.950
XW-2F 20 Oct 06:07:04 06:09:12 15° 91° (E) 06:11:20 145.980 - 146.000
LilacSat-2 20 Oct 06:10:55 06:13:38 19° 93° (E) 06:16:20 437.200
KKS-1 20 Oct 06:16:28 06:19:45 20° 267° (W) 06:23:03 437.445
XW-2D 20 Oct 06:18:28 06:21:26 22° 94° (E) 06:24:22 145.860 - 145.880
NUDT-PHONESAT 20 Oct 06:20:45 06:23:02 16° 92° (E) 06:25:17 437.300
DOVE 4 20 Oct 06:21:39 06:26:36 81° 285° (WNW) 06:31:48 437.250
XW-2B 20 Oct 06:31:38 06:34:58 29° 96° (E) 06:38:15 145.730 - 145.750
STARS 20 Oct 06:50:11 06:53:32 21° 267° (W) 06:56:54 437.465
NO-84 20 Oct 06:53:52 06:57:10 22° 353° (N) 07:00:19 435.350 FM
XW-2C 20 Oct 06:54:36 06:58:18 57° 101° (E) 07:01:58 145.795 - 145.815
AO-7 20 Oct 06:57:58 07:04:00 23° 312° (NW) 07:10:03 .
STRAND 1 20 Oct 07:12:58 07:18:03 67° 72° (ENE) 07:23:10 437.568
HO-68 20 Oct 07:15:18 07:21:35 31° 94° (E) 07:27:46 435.675
PCSat 20 Oct 07:26:56 07:29:48 15° 104° (ESE) 07:32:41 145.827
SO-50 20 Oct 07:27:58 07:32:26 73° 123° (ESE) 07:36:55 436.795
CUTE-I 20 Oct 07:31:21 07:36:46 89° 282° (WNW) 07:42:09 437.470
O/OREOS (USA 219) 20 Oct 07:34:32 07:38:36 31° 255° (WSW) 07:42:37 437.305
CUTE 1.7 + AOD 2 20 Oct 07:35:33 07:39:26 35° 97° (E) 07:43:17 437.475
UWE-3 20 Oct 07:36:30 07:38:44 13° 88° (E) 07:40:55 435.000/436.395/437.385
KAITUO 1B 20 Oct 07:38:43 07:42:20 55° 286° (WNW) 07:45:55 145.475/437.950
XW-2F 20 Oct 07:40:00 07:43:32 42° 288° (WNW) 07:47:03 145.980 - 146.000
SEEDS 20 Oct 07:43:32 07:47:06 27° 95° (E) 07:50:40 437.485
LilacSat-2 20 Oct 07:44:35 07:48:01 33° 290° (WNW) 07:51:24 437.200
XW-2D 20 Oct 07:52:22 07:55:37 28° 291° (WNW) 07:58:50 145.860 - 145.880
NUDT-PHONESAT 20 Oct 07:53:38 07:57:03 38° 289° (WNW) 08:00:27 437.300
XW-2A 20 Oct 07:59:11 08:01:44 20° 94° (E) 08:04:16 145.665 - 145.685
DOVE 4 20 Oct 08:01:33 08:03:34 12° 301° (WNW) 08:05:38 437.250
XW-2B 20 Oct 08:06:05 08:08:59 21° 293° (WNW) 08:11:52 145.730 - 145.750
AAUSAT CUBESAT 2 20 Oct 08:08:36 08:11:53 23° 94° (E) 08:15:10 437.432
FO-29 20 Oct 08:10:02 08:14:51 38° 65° (ENE) 08:20:02 435.910
RS-15 20 Oct 08:21:13 08:32:51 48° 36° (NE) 08:43:51 29.354- 29.394
AO-73 20 Oct 08:28:08 08:31:30 21° 92° (E) 08:34:48 145.935
XW-2C 20 Oct 08:30:23 08:32:01 12° 298° (WNW) 08:33:38 145.795 - 145.815
NO-84 20 Oct 08:32:08 08:35:35 26° 15° (NNE) 08:38:49 435.350 FM
CUBEBUG 2 20 Oct 08:32:21 08:37:03 85° 103° (ESE) 08:41:36 437.445
YUBILEINY 20 Oct 08:33:09 08:40:00 27° 80° (E) 08:46:52 435.215
ZACube-1 20 Oct 08:49:29 08:53:38 40° 97° (E) 08:57:40 437.345
STRAND 1 20 Oct 08:54:27 08:57:43 17° 270° (W) 09:01:00 437.568
HO-68 20 Oct 09:02:37 09:09:39 58° 293° (WNW) 09:16:39 435.675
PCSat 20 Oct 09:07:00 09:12:25 87° 301° (WNW) 09:17:54 145.827
SO-50 20 Oct 09:09:59 09:13:22 21° 324° (NW) 09:16:47 436.795
UWE-3 20 Oct 09:11:09 09:15:41 67° 285° (WNW) 09:20:02 435.000/436.395/437.385
CUTE 1.7 + AOD 2 20 Oct 09:11:47 09:15:05 23° 294° (WNW) 09:18:22 437.475
CUTE-I 20 Oct 09:13:06 09:16:03 15° 304° (NW) 09:19:00 437.470
UNISAT 6 20 Oct 09:15:09 09:19:27 38° 69° (ENE) 09:23:49 437.425
SEEDS 20 Oct 09:19:09 09:22:45 29° 292° (WNW) 09:26:20 437.485
Oscar 11 20 Oct 09:26:36 09:30:53 61° 101° (E) 09:35:07 .
TIGRISAT 20 Oct 09:29:48 09:34:17 49° 71° (ENE) 09:38:49 435.000
XW-2A 20 Oct 09:31:40 09:34:25 24° 291° (WNW) 09:37:10 145.665 - 145.685
DELFI C3 20 Oct 09:39:13 09:42:00 18° 92° (E) 09:44:46 145.870
AAUSAT CUBESAT 2 20 Oct 09:43:41 09:47:24 33° 291° (WNW) 09:51:06 437.432
FO-29 20 Oct 09:55:30 10:00:05 30° 266° (W) 10:04:59 435.910
AIST 2D 20 Oct 10:02:43 10:03:31 11° 63° (ENE) 10:04:20 435.315
AO-73 20 Oct 10:03:49 10:07:53 38° 290° (WNW) 10:11:51 145.935
NO-84 20 Oct 10:09:32 10:13:28 84° 37° (NE) 10:17:02 435.350 FM
CUBEBUG 2 20 Oct 10:10:50 10:12:56 13° 302° (WNW) 10:15:02 437.445
PRISM 20 Oct 10:24:28 10:28:30 89° 70° (ENE) 10:32:36 437.425
EO-88 20 Oct 10:26:02 10:29:18 30° 97° (E) 10:32:31 145.990 - 145.960
ZACube-1 20 Oct 10:26:16 10:29:40 22° 295° (WNW) 10:32:58 437.345
YUBILEINY 20 Oct 10:27:19 10:35:59 71° 282° (WNW) 10:44:44 435.215
nSIGHT-1 20 Oct 10:27:57 10:30:56 38° 142° (SE) 10:33:56 .
RS-15 20 Oct 10:34:15 10:46:02 68° 243° (WSW) 10:57:10 29.354- 29.394
Max Valier Satellite 20 Oct 10:35:10 10:38:48 55° 100° (E) 10:42:24 145.860
QB50P2 20 Oct 10:41:00 10:43:43 17° 62° (ENE) 10:46:26 145.880/145.840
NANOSAT C BR1 20 Oct 10:44:47 10:47:10 15° 61° (ENE) 10:49:35 145.865
UNISAT 6 20 Oct 10:52:25 10:56:15 25° 267° (W) 11:00:09 437.425
HO-68 20 Oct 10:52:36 10:55:54 14° 314° (NW) 10:59:12 435.675
PCSat 20 Oct 10:52:43 10:56:38 20° 323° (NW) 11:00:33 145.827
DUCHIFAT 1 20 Oct 10:55:16 10:57:57 17° 62° (ENE) 11:00:39 145.980
ISS 20 Oct 11:00:04 11:03:17 64° 147° (SSE) 11:06:32 437.550
Oscar 11 20 Oct 11:04:02 11:06:32 15° 298° (WNW) 11:09:01 .
TIGRISAT 20 Oct 11:07:49 11:11:13 20° 269° (W) 11:14:40 435.000
DELFI C3 20 Oct 11:13:12 11:16:54 38° 289° (WNW) 11:20:35 145.870
LO-87 20 Oct 11:16:45 11:19:09 17° 92° (E) 11:21:32 145.935 - 145.965
ESTCUBE 1 20 Oct 11:27:10 11:30:12 18° 91° (E) 11:33:14 437.505/2401.250
